Location: *
(45.5667°S, 177.5167°W)
Time: 21:51:00
(UTC+00:00)

GEOS 3 Rocket - Pass Details

Date: 29 May 2022
Orbit: 791 x 828 km, 115.0° (Epoch: 24 June)

Event Time Altitude Azimuth Distance (km) Brightness Sun altitude
Exits shadow 06:39:01 34° 32° (NNE) 1,321 4.5 -24.1°
Drops below altitude 10° 06:42:43 10° 352° (N) 2,391 6.2 -24.7°
Sets 06:45:09 0° 344° (NNW) 3,309 7.1 -25.2°
